Location: Syke, Rochdale
(53.6121°N, 2.1588°W)
Time: 03:10:26
(UTC+02:00)

Amateur Radio Satellites - All Passes

Search period start: 22 October 2017 02:40
Search period end: 23 October 2017 02:40
Location: Syke, Rochdale, 53.6121°N, 2.1588°W

Satellite Date Start Highest point End Downlink Frequencies (MHz)
Time Altitude Azimuth
UKube-1 22 Oct 02:46:36 02:50:53 71° 70° (ENE) 02:55:12 .
AIST 2D 22 Oct 02:49:09 02:51:42 19° 298° (WNW) 02:54:14 435.315
ITUPSAT 1 22 Oct 02:52:29 02:55:53 19° 54° (NE) 02:59:16 437.325
QB50P2 22 Oct 02:52:49 02:56:58 51° 292° (WNW) 03:01:06 145.880/145.840
NANOSAT C BR1 22 Oct 02:54:28 02:58:40 58° 290° (WNW) 03:02:49 145.865
VELOX 1 22 Oct 03:01:47 03:05:06 21° 269° (W) 03:08:26 145.980
DUCHIFAT 1 22 Oct 03:04:23 03:08:33 53° 291° (WNW) 03:12:40 145.980
BUGSAT 1 22 Oct 03:06:06 03:10:16 52° 100° (E) 03:14:23 437.445
BEESAT 22 Oct 03:06:25 03:10:14 24° 57° (ENE) 03:14:04 436.000
Oscar 19 22 Oct 03:07:30 03:12:04 31° 94° (E) 03:16:36 437.125/150
MOZHAYETS 4 22 Oct 03:44:58 03:49:23 46° 67° (ENE) 03:53:50
NO-84 22 Oct 03:49:48 03:51:54 13° 130° (SE) 03:53:59 435.350 FM
50 SAT 22 Oct 03:50:08 03:51:43 13° 270° (W) 03:53:18 437.505
M-CUBED/EXP-1 PRIME 22 Oct 03:50:30 03:53:44 34° 105° (ESE) 03:57:10 437.505
Gurwin Techsat 1B 22 Oct 03:50:32 03:55:44 50° 100° (E) 04:00:54 435.225
CUBESAT XI-V 22 Oct 04:01:26 04:04:51 21° 57° (ENE) 04:08:15 437.345
DX 1 22 Oct 04:03:34 04:06:34 18° 270° (W) 04:09:36 434.975-435.025
EO-79 22 Oct 04:03:59 04:06:36 16° 305° (NW) 04:09:12 145.935-145.965
POLYITAN 1 22 Oct 04:09:20 04:11:44 15° 306° (NW) 04:14:06 437.675
RS-15 22 Oct 04:22:15 04:34:38 70° 325° (NW) 04:46:47 29.354- 29.394
UKube-1 22 Oct 04:24:33 04:27:23 17° 271° (W) 04:30:15 .
O/OREOS (USA 219) 22 Oct 04:27:02 04:28:28 11° 22° (NNE) 04:29:54 437.305
ITUPSAT 1 22 Oct 04:28:18 04:33:08 85° 255° (WSW) 04:38:00 437.325
NANOSAT C BR1 22 Oct 04:32:22 04:33:31 11° 310° (NW) 04:34:40 145.865
BUGSAT 1 22 Oct 04:41:57 04:45:21 24° 300° (WNW) 04:48:42 437.445
BEESAT 22 Oct 04:42:53 04:47:39 64° 257° (WSW) 04:52:27 436.000
DUCHIFAT 1 22 Oct 04:42:59 04:43:18 10° 311° (NW) 04:43:37 145.980
Oscar 19 22 Oct 04:46:40 04:51:37 49° 294° (WNW) 04:56:31 437.125/150
KKS-1 22 Oct 05:01:48 05:05:22 24° 59° (ENE) 05:08:58 437.445
AO-7 22 Oct 05:11:07 05:18:52 41° 97° (E) 05:26:34 .
ITAMSAT 1 22 Oct 05:22:32 05:27:21 35° 96° (E) 05:32:08 435.822/435.867
MOZHAYETS 4 22 Oct 05:22:43 05:26:44 29° 266° (W) 05:30:47
NO-84 22 Oct 05:24:28 05:28:35 47° 149° (SSE) 05:32:36 435.350 FM
M-CUBED/EXP-1 PRIME 22 Oct 05:25:08 05:28:08 27° 302° (WNW) 05:31:16 437.505
STARS 22 Oct 05:30:22 05:33:40 21° 57° (ENE) 05:37:00 437.465
Gurwin Techsat 1B 22 Oct 05:30:47 05:35:33 34° 300° (WNW) 05:40:17 435.225
CUBESAT XI-V 22 Oct 05:37:09 05:41:46 72° 257° (WSW) 05:46:24 437.345
O/OREOS (USA 219) 22 Oct 06:05:12 06:09:22 32° 46° (NE) 06:13:31 437.305
ITUPSAT 1 22 Oct 06:09:04 06:11:43 15° 274° (W) 06:14:22 437.325
BEESAT 22 Oct 06:25:22 06:26:23 11° 277° (W) 06:27:25 436.000
Oscar 19 22 Oct 06:27:59 06:29:50 12° 315° (NW) 06:31:40 437.125/150
KKS-1 22 Oct 06:37:17 06:41:38 56° 259° (WSW) 06:46:04 437.445
RS-15 22 Oct 06:37:28 06:49:22 50° 357° (N) 07:00:52 29.354- 29.394
LilacSat-2 22 Oct 07:01:14 07:02:18 11° 86° (E) 07:03:22 437.200
NO-84 22 Oct 07:01:40 07:05:56 80° 348° (NNW) 07:10:00 435.350 FM
ITAMSAT 1 22 Oct 07:01:58 07:06:58 45° 296° (WNW) 07:11:55 435.822/435.867
AO-7 22 Oct 07:03:54 07:12:05 65° 300° (WNW) 07:20:16 .
STARS 22 Oct 07:05:14 07:09:36 66° 256° (WSW) 07:14:03 437.465
XW-2D 22 Oct 07:05:54 07:07:21 12° 87° (E) 07:08:46 145.860 - 145.880
DOVE 4 22 Oct 07:07:38 07:12:27 51° 99° (E) 07:17:29 437.250
STRAND 1 22 Oct 07:07:45 07:11:50 24° 56° (NE) 07:15:56 437.568
CUBESAT XI-V 22 Oct 07:18:32 07:20:00 11° 277° (W) 07:21:29 437.345
XW-2B 22 Oct 07:18:44 07:21:00 15° 89° (E) 07:23:16 145.730 - 145.750
XW-2C 22 Oct 07:41:27 07:44:37 25° 94° (E) 07:47:46 145.795 - 145.815
CUTE-I 22 Oct 07:43:21 07:47:54 27° 92° (E) 07:52:26 437.470
O/OREOS (USA 219) 22 Oct 07:44:32 07:49:00 49° 248° (WSW) 07:53:25 437.305
SO-50 22 Oct 07:47:53 07:51:30 24° 118° (ESE) 07:55:08 436.795
KAITUO 1B 22 Oct 08:19:46 08:23:21 46° 99° (E) 08:26:55 145.475/437.950
XW-2F 22 Oct 08:24:29 08:28:13 66° 102° (ESE) 08:31:55 145.980 - 146.000
NUDT-PHONESAT 22 Oct 08:31:03 08:34:42 59° 101° (ESE) 08:38:18 437.300
LilacSat-2 22 Oct 08:33:22 08:37:10 88° 290° (WNW) 08:40:56 437.200
XW-2D 22 Oct 08:38:17 08:42:04 82° 284° (WNW) 08:45:48 145.860 - 145.880
NO-84 22 Oct 08:39:22 08:43:33 78° 10° (N) 08:47:28 435.350 FM
ITAMSAT 1 22 Oct 08:43:33 08:45:14 12° 317° (NW) 08:46:56 435.822/435.867
STRAND 1 22 Oct 08:45:27 08:50:35 71° 256° (WSW) 08:55:46 437.568
DOVE 4 22 Oct 08:45:41 08:49:58 31° 297° (WNW) 08:54:27 437.250
FO-29 22 Oct 08:48:20 08:53:07 33° 57° (ENE) 08:58:20 435.910
CUBEBUG 2 22 Oct 08:50:17 08:54:05 24° 90° (E) 08:57:46 437.445
XW-2B 22 Oct 08:51:52 08:55:35 62° 289° (WNW) 08:59:17 145.730 - 145.750
RS-15 22 Oct 08:52:09 09:04:19 64° 29° (NNE) 09:15:52 29.354- 29.394
AO-7 22 Oct 08:57:17 09:03:30 25° 324° (NW) 09:09:45 .
HO-68 22 Oct 08:58:44 09:05:37 45° 98° (E) 09:12:28 435.675
ZACube-1 22 Oct 09:00:52 09:01:17 10° 82° (E) 09:01:42 437.345
PCSat 22 Oct 09:05:59 09:10:26 26° 111° (ESE) 09:14:53 145.827
YUBILEINY 22 Oct 09:06:51 09:12:45 21° 72° (ENE) 09:18:39 435.215
CUTE 1.7 + AOD 2 22 Oct 09:07:36 09:11:43 48° 99° (E) 09:15:47 437.475
SEEDS 22 Oct 09:11:24 09:15:15 35° 96° (E) 09:19:04 437.485
XW-2C 22 Oct 09:15:27 09:18:54 35° 293° (WNW) 09:22:19 145.795 - 145.815
CUTE-I 22 Oct 09:23:02 09:28:20 61° 292° (WNW) 09:33:37 437.470
UWE-3 22 Oct 09:24:35 09:28:33 29° 93° (E) 09:32:24 435.000/436.395/437.385
SO-50 22 Oct 09:27:05 09:31:34 70° 318° (NW) 09:36:07 436.795
AAUSAT CUBESAT 2 22 Oct 09:30:04 09:33:35 26° 93° (E) 09:37:05 437.432
Oscar 11 22 Oct 09:33:00 09:35:06 13° 86° (E) 09:37:10 .
XW-2A 22 Oct 09:37:15 09:40:23 34° 98° (E) 09:43:27 145.665 - 145.685
UNISAT 6 22 Oct 09:40:48 09:44:31 24° 59° (ENE) 09:48:16 437.425
KAITUO 1B 22 Oct 09:54:18 09:57:05 20° 299° (WNW) 09:59:52 145.475/437.950
TIGRISAT 22 Oct 09:54:45 09:58:44 28° 61° (ENE) 10:02:44 435.000
XW-2F 22 Oct 09:59:34 10:01:55 16° 301° (WNW) 10:04:15 145.980 - 146.000
NUDT-PHONESAT 22 Oct 10:05:46 10:08:11 17° 301° (WNW) 10:10:35 437.300
LilacSat-2 22 Oct 10:09:09 10:10:52 13° 304° (NW) 10:12:35 437.200
AO-73 22 Oct 10:10:58 10:15:06 38° 96° (E) 10:19:06 145.935
PRISM 22 Oct 10:13:21 10:16:20 20° 58° (ENE) 10:19:20 437.425
XW-2D 22 Oct 10:14:11 10:15:37 12° 305° (NW) 10:17:02 145.860 - 145.880
NO-84 22 Oct 10:16:59 10:20:52 46° 211° (SSW) 10:24:27 435.350 FM
CUBEBUG 2 22 Oct 10:26:25 10:31:01 55° 291° (WNW) 10:35:28 437.445
STRAND 1 22 Oct 10:28:25 10:30:44 13° 277° (W) 10:33:03 437.568
FO-29 22 Oct 10:32:46 10:37:59 54° 261° (W) 10:43:47 435.910
ZACube-1 22 Oct 10:34:02 10:38:28 69° 102° (ESE) 10:42:46 437.345
DELFI C3 22 Oct 10:41:55 10:44:10 15° 88° (E) 10:46:25 145.870
CUTE 1.7 + AOD 2 22 Oct 10:43:53 10:47:19 25° 299° (WNW) 10:50:44 437.475
HO-68 22 Oct 10:46:34 10:53:31 52° 300° (WNW) 11:00:26 435.675
SEEDS 22 Oct 10:47:11 10:50:54 32° 295° (WNW) 10:54:37 437.485
PCSat 22 Oct 10:47:57 10:53:23 74° 313° (NW) 10:58:51 145.827
AO-7 22 Oct 10:50:02 10:53:28 13° 350° (N) 10:56:54 .
YUBILEINY 22 Oct 10:59:24 11:08:03 75° 96° (E) 11:16:48 435.215
EO-88 22 Oct 10:59:39 11:00:43 11° 86° (E) 11:01:47 145.990 - 145.960
UWE-3 22 Oct 11:00:50 11:05:10 43° 293° (WNW) 11:09:21 435.000/436.395/437.385
CUTE-I 22 Oct 11:04:28 11:07:25 15° 313° (NW) 11:10:21 437.470
AAUSAT CUBESAT 2 22 Oct 11:05:17 11:09:11 41° 292° (WNW) 11:13:04 437.432
RS-15 22 Oct 11:05:18 11:17:06 65° 238° (WSW) 11:28:17 29.354- 29.394
Oscar 11 22 Oct 11:07:34 11:11:54 90° 345° (NNW) 11:16:13 .
SO-50 22 Oct 11:08:57 11:12:45 26° 341° (NNW) 11:16:36 436.795
XW-2A 22 Oct 11:10:17 11:12:57 22° 296° (WNW) 11:15:33 145.665 - 145.685
Max Valier Satellite 22 Oct 11:12:23 11:15:09 20° 92° (E) 11:17:54 145.860
UNISAT 6 22 Oct 11:16:13 11:20:52 64° 258° (WSW) 11:25:35 437.425
TIGRISAT 22 Oct 11:30:37 11:35:11 52° 260° (W) 11:39:49 435.000
nSIGHT-1 22 Oct 11:38:24 11:40:51 21° 149° (SSE) 11:43:20 .
PRISM 22 Oct 11:47:15 11:51:15 60° 258° (WSW) 11:55:18 437.425
AO-73 22 Oct 11:47:22 11:51:15 31° 297° (WNW) 11:55:03 145.935
EO-79 22 Oct 11:50:43 11:54:05 23° 59° (ENE) 11:57:27 145.935-145.965
AIST 2D 22 Oct 11:55:17 11:58:38 43° 70° (ENE) 12:01:59 435.315
POLYITAN 1 22 Oct 11:55:49 11:59:19 25° 61° (ENE) 12:02:51 437.675
NO-84 22 Oct 11:56:05 11:57:22 11° 232° (SW) 11:58:37 435.350 FM
CUBEBUG 2 22 Oct 12:05:02 12:06:39 12° 311° (NW) 12:08:14 437.445
ZACube-1 22 Oct 12:11:06 12:14:18 20° 303° (WNW) 12:17:26 437.345
DELFI C3 22 Oct 12:15:27 12:19:24 72° 287° (WNW) 12:23:22 145.870
ISS 22 Oct 12:15:30 12:18:24 30° 155° (SSE) 12:21:19 437.550
QB50P2 22 Oct 12:15:39 12:19:38 38° 66° (ENE) 12:23:38 145.880/145.840
NANOSAT C BR1 22 Oct 12:17:02 12:20:52 33° 64° (ENE) 12:24:44 145.865
DUCHIFAT 1 22 Oct 12:26:35 12:30:28 36° 65° (ENE) 12:34:24 145.980
BUGSAT 1 22 Oct 12:28:29 12:30:51 15° 54° (NE) 12:33:14 437.445
EO-88 22 Oct 12:31:16 12:34:55 83° 286° (WNW) 12:38:32 145.990 - 145.960
PCSat 22 Oct 12:33:02 12:37:39 27° 336° (NNW) 12:42:16 145.827
BEESAT 3 22 Oct 12:33:36 12:35:27 13° 112° (ESE) 12:37:19 437.485
HO-68 22 Oct 12:35:18 12:39:47 18° 323° (NW) 12:44:16 435.675
AO-7 22 Oct 12:38:46 12:42:57 15° 18° (NNE) 12:47:09 .
Oscar 11 22 Oct 12:44:52 12:47:26 16° 305° (NW) 12:50:00 .
Max Valier Satellite 22 Oct 12:45:40 12:49:12 44° 291° (WNW) 12:52:42 145.860
SO-50 22 Oct 12:51:04 12:54:34 21° 6° (N) 12:58:05 436.795
Oscar 19 22 Oct 12:53:32 12:57:03 19° 52° (NE) 13:00:33 437.125/150
UNISAT 6 22 Oct 12:57:49 12:58:32 10° 278° (W) 12:59:14 437.425
YUBILEINY 22 Oct 12:57:57 13:05:44 35° 301° (WNW) 13:13:37 435.215
M-CUBED/EXP-1 PRIME 22 Oct 13:09:25 13:11:35 17° 53° (NE) 13:13:45 437.505
nSIGHT-1 22 Oct 13:13:35 13:16:43 52° 169° (S) 13:19:51 .
LO-87 22 Oct 13:14:29 13:18:01 46° 99° (E) 13:21:32 145.935 - 145.965
RS-15 22 Oct 13:19:19 13:26:58 20° 264° (W) 13:34:25 29.354- 29.394
EO-79 22 Oct 13:25:19 13:29:32 56° 259° (W) 13:33:46 145.935-145.965
ESTCUBE 1 22 Oct 13:26:28 13:30:46 44° 99° (E) 13:35:04 437.505/2401.250
AIST 2D 22 Oct 13:29:31 13:32:02 18° 269° (W) 13:34:33 435.315
POLYITAN 1 22 Oct 13:30:41 13:34:52 50° 260° (W) 13:39:05 437.675
Gurwin Techsat 1B 22 Oct 13:39:22 13:43:54 29° 58° (ENE) 13:48:26 435.225
SPROUT 22 Oct 13:43:58 13:47:12 20° 90° (E) 13:50:25 437.525
ISS 22 Oct 13:51:21 13:54:34 60° 175° (S) 13:57:49 437.550
QB50P2 22 Oct 13:51:42 13:55:30 30° 265° (W) 13:59:19 145.880/145.840
DELFI C3 22 Oct 13:52:01 13:53:27 12° 306° (NW) 13:54:53 145.870
NANOSAT C BR1 22 Oct 13:52:38 13:56:33 35° 263° (W) 14:00:31 145.865
BEESAT 2 22 Oct 13:57:11 14:00:31 25° 119° (ESE) 14:03:53 435.950
BUGSAT 1 22 Oct 14:01:20 14:05:34 84° 74° (ENE) 14:09:51 437.445
DUCHIFAT 1 22 Oct 14:02:21 14:06:11 32° 265° (W) 14:10:02 145.980
EO-88 22 Oct 14:06:41 14:07:57 12° 305° (NW) 14:09:13 145.990 - 145.960
BEESAT 3 22 Oct 14:08:19 14:12:20 76° 131° (SE) 14:16:23 437.485
PCSat 22 Oct 14:18:52 14:22:49 20° 2° (N) 14:26:46 145.827
AO-7 22 Oct 14:26:18 14:33:18 32° 44° (NE) 14:40:19 .
Oscar 19 22 Oct 14:30:31 14:35:41 84° 71° (ENE) 14:40:53 437.125/150
SO-50 22 Oct 14:31:53 14:36:09 37° 30° (NNE) 14:40:28 436.795
M-CUBED/EXP-1 PRIME 22 Oct 14:42:32 14:45:45 52° 252° (WSW) 14:48:58 437.505
VELOX 1 22 Oct 14:43:35 14:47:55 48° 100° (E) 14:52:13 145.980
LO-87 22 Oct 14:48:26 14:51:11 20° 298° (WNW) 14:53:54 145.935 - 145.965
AO-85 22 Oct 14:49:12 14:52:55 45° 126° (SE) 14:56:49 145.980
nSIGHT-1 22 Oct 14:49:40 14:52:49 56° 189° (S) 14:55:58 .
50 SAT 22 Oct 15:00:56 15:03:32 21° 94° (E) 15:06:06 437.505
YUBILEINY 22 Oct 15:02:51 15:06:08 12° 331° (NNW) 15:09:26 435.215
ESTCUBE 1 22 Oct 15:03:33 15:07:27 30° 298° (WNW) 15:11:19 437.505/2401.250
ITAMSAT 1 22 Oct 15:09:14 15:13:08 22° 53° (NE) 15:17:03 435.822/435.867
Gurwin Techsat 1B 22 Oct 15:18:19 15:23:33 60° 258° (WSW) 15:28:51 435.225
SPROUT 22 Oct 15:19:12 15:23:28 58° 290° (WNW) 15:27:41 437.525
ISS 22 Oct 15:27:42 15:30:51 47° 195° (SSW) 15:34:01 437.550
BEESAT 2 22 Oct 15:33:58 15:37:59 60° 319° (NW) 15:42:02 435.950
BUGSAT 1 22 Oct 15:39:15 15:41:31 14° 273° (W) 15:43:48 437.445
DX 1 22 Oct 15:43:17 15:47:34 50° 101° (E) 15:51:49 434.975-435.025
BEESAT 3 22 Oct 15:46:45 15:50:16 28° 333° (NNW) 15:53:48 437.485
UKube-1 22 Oct 16:02:55 16:07:10 51° 101° (E) 16:11:23 .
PCSat 22 Oct 16:03:05 16:07:53 30° 28° (NNE) 16:12:39 145.827
Oscar 19 22 Oct 16:12:10 16:15:41 18° 272° (W) 16:19:12 437.125/150
SO-50 22 Oct 16:12:20 16:16:52 60° 231° (SW) 16:21:26 436.795
AO-7 22 Oct 16:16:56 16:25:16 89° 67° (ENE) 16:33:37 .
VELOX 1 22 Oct 16:20:25 16:24:10 27° 299° (WNW) 16:27:55 145.980
ITUPSAT 1 22 Oct 16:23:20 16:26:16 16° 87° (E) 16:29:10 437.325
nSIGHT-1 22 Oct 16:26:04 16:28:44 24° 208° (SSW) 16:31:24 .
AO-85 22 Oct 16:29:42 16:33:25 37° 328° (NNW) 16:37:19 145.980
50 SAT 22 Oct 16:32:53 16:35:56 34° 293° (WNW) 16:38:57 437.505
BEESAT 22 Oct 16:36:56 16:40:33 21° 90° (E) 16:44:07 436.000
DOVE 4 22 Oct 16:44:02 16:46:48 17° 54° (NE) 16:49:39 437.250
ITAMSAT 1 22 Oct 16:46:49 16:52:02 84° 252° (WSW) 16:57:18 435.822/435.867
SPROUT 22 Oct 16:57:14 16:58:29 11° 310° (NW) 16:59:44 437.525
Gurwin Techsat 1B 22 Oct 17:03:21 17:04:39 11° 279° (W) 17:05:59 435.225
ISS 22 Oct 17:04:36 17:06:50 17° 214° (SW) 17:09:03 437.550
MOZHAYETS 4 22 Oct 17:10:16 17:14:40 43° 98° (E) 17:19:01
BEESAT 2 22 Oct 17:13:17 17:16:27 21° 342° (NNW) 17:19:39 435.950
DX 1 22 Oct 17:19:53 17:23:31 26° 300° (WNW) 17:27:09 434.975-435.025
BEESAT 3 22 Oct 17:26:19 17:28:59 17° 356° (N) 17:31:39 437.485
CUBESAT XI-V 22 Oct 17:27:45 17:31:00 19° 89° (E) 17:34:14 437.345
CUTE-I 22 Oct 17:33:55 17:37:26 18° 50° (NE) 17:40:58 437.470
UKube-1 22 Oct 17:39:24 17:42:57 25° 300° (WNW) 17:46:29 .
XW-2F 22 Oct 17:39:47 17:41:09 12° 55° (NE) 17:42:33 145.980 - 146.000
NUDT-PHONESAT 22 Oct 17:45:38 17:46:11 10° 54° (NE) 17:46:45 437.300
PCSat 22 Oct 17:46:29 17:51:58 89° 50° (NE) 17:57:24 145.827
LilacSat-2 22 Oct 17:48:34 17:50:53 16° 58° (ENE) 17:53:13 437.200
HO-68 22 Oct 17:49:16 17:54:16 21° 41° (NE) 17:59:17 435.675
XW-2D 22 Oct 17:52:45 17:55:10 16° 58° (ENE) 17:57:34 145.860 - 145.880
SO-50 22 Oct 17:54:59 17:56:27 11° 251° (WSW) 17:57:56 436.795
ITUPSAT 1 22 Oct 17:59:55 18:04:46 88° 287° (WNW) 18:09:34 437.325
XW-2B 22 Oct 18:05:46 18:08:36 20° 61° (ENE) 18:11:25 145.730 - 145.750
AO-85 22 Oct 18:11:54 18:14:53 19° 353° (N) 18:17:59 145.980
AO-7 22 Oct 18:12:22 18:19:06 27° 270° (W) 18:25:55 .
BEESAT 22 Oct 18:14:01 18:18:47 67° 290° (WNW) 18:23:32 436.000
DOVE 4 22 Oct 18:19:34 18:23:51 87° 258° (WSW) 18:28:24 437.250
KKS-1 22 Oct 18:22:14 18:25:23 18° 90° (E) 18:28:31 437.445
XW-2C 22 Oct 18:28:27 18:31:50 32° 66° (ENE) 18:35:14 145.795 - 145.815
ITAMSAT 1 22 Oct 18:29:14 18:32:20 16° 274° (W) 18:35:26 435.822/435.867
CUTE 1.7 + AOD 2 22 Oct 18:33:02 18:35:02 13° 53° (NE) 18:37:03 437.475
MOZHAYETS 4 22 Oct 18:47:41 18:51:43 31° 298° (WNW) 18:55:43
STARS 22 Oct 18:49:06 18:51:40 15° 87° (E) 18:54:13 437.465
BEESAT 2 22 Oct 18:52:44 18:55:30 17° 6° (N) 18:58:16 435.950
UWE-3 22 Oct 18:54:53 18:55:59 11° 48° (NE) 18:57:04 435.000/436.395/437.385
CUBESAT XI-V 22 Oct 19:04:17 19:08:53 71° 288° (WNW) 19:13:27 437.345
BEESAT 3 22 Oct 19:04:36 19:07:48 22° 20° (NNE) 19:10:59 437.485
YUBILEINY 22 Oct 19:05:03 19:10:43 18° 41° (NE) 19:16:23 435.215
KAITUO 1B 22 Oct 19:05:18 19:08:57 56° 71° (ENE) 19:12:36 145.475/437.950
XW-2F 22 Oct 19:10:53 19:14:39 80° 74° (ENE) 19:18:25 145.980 - 146.000
CUTE-I 22 Oct 19:11:24 19:16:43 77° 71° (ENE) 19:22:05 437.470
NUDT-PHONESAT 22 Oct 19:15:39 19:19:21 70° 73° (ENE) 19:23:03 437.300
LilacSat-2 22 Oct 19:20:54 19:24:43 72° 257° (WSW) 19:28:32 437.200
XW-2D 22 Oct 19:25:08 19:28:54 67° 257° (WSW) 19:32:42 145.860 - 145.880
PCSat 22 Oct 19:30:46 19:34:43 21° 251° (WSW) 19:38:39 145.827
HO-68 22 Oct 19:33:44 19:40:47 63° 64° (ENE) 19:47:54 435.675
ITUPSAT 1 22 Oct 19:38:46 19:41:58 18° 307° (NW) 19:45:09 437.325
XW-2B 22 Oct 19:38:48 19:42:30 50° 260° (W) 19:46:12 145.730 - 145.750
AO-73 22 Oct 19:38:50 19:40:55 13° 52° (NE) 19:42:58 145.935
BEESAT 22 Oct 19:53:12 19:55:45 14° 310° (NW) 19:58:16 436.000
AO-85 22 Oct 19:53:15 19:56:38 22° 17° (NNE) 20:00:12 145.980
CUBEBUG 2 22 Oct 19:53:44 19:58:10 41° 66° (ENE) 20:02:40 437.445
KKS-1 22 Oct 19:57:55 20:02:25 70° 289° (WNW) 20:06:53 437.445
DOVE 4 22 Oct 20:00:27 20:02:23 13° 277° (W) 20:04:21 437.250
ZACube-1 22 Oct 20:00:44 20:04:05 20° 58° (ENE) 20:07:25 437.345
XW-2C 22 Oct 20:02:42 20:06:03 29° 265° (W) 20:09:24 145.795 - 145.815
CUTE 1.7 + AOD 2 22 Oct 20:05:58 20:10:11 76° 72° (ENE) 20:14:25 437.475
SEEDS 22 Oct 20:08:44 20:12:48 53° 70° (ENE) 20:16:53 437.485
XW-2A 22 Oct 20:14:03 20:17:10 34° 68° (ENE) 20:20:17 145.665 - 145.685
STARS 22 Oct 20:24:08 20:28:37 85° 287° (WNW) 20:33:03 437.465
AAUSAT CUBESAT 2 22 Oct 20:25:52 20:29:41 39° 67° (ENE) 20:33:31 437.432
UWE-3 22 Oct 20:26:54 20:31:24 50° 69° (ENE) 20:35:57 435.000/436.395/437.385
BEESAT 2 22 Oct 20:30:42 20:34:22 31° 29° (NNE) 20:38:00 435.950
Oscar 11 22 Oct 20:33:14 20:36:41 23° 60° (ENE) 20:40:08 .
KAITUO 1B 22 Oct 20:40:50 20:43:16 16° 270° (W) 20:45:42 145.475/437.950
BEESAT 3 22 Oct 20:42:01 20:46:01 68° 43° (NE) 20:49:57 437.485
CUBESAT XI-V 22 Oct 20:43:08 20:45:29 14° 308° (NW) 20:47:49 437.345
XW-2F 22 Oct 20:47:43 20:49:17 12° 273° (W) 20:50:52 145.980 - 146.000
STRAND 1 22 Oct 20:49:42 20:53:59 25° 92° (E) 20:58:13 437.568
NUDT-PHONESAT 22 Oct 20:51:44 20:53:39 14° 272° (W) 20:55:34 437.300
CUTE-I 22 Oct 20:53:25 20:57:23 21° 271° (W) 21:01:23 437.470
YUBILEINY 22 Oct 21:01:24 21:10:02 54° 69° (ENE) 21:18:38 435.215
AO-73 22 Oct 21:11:48 21:16:20 66° 72° (ENE) 21:20:51 145.935
HO-68 22 Oct 21:22:27 21:28:57 36° 266° (W) 21:35:31 435.675
CUBEBUG 2 22 Oct 21:30:35 21:34:52 33° 266° (W) 21:39:13 437.445
DELFI C3 22 Oct 21:32:56 21:35:52 21° 60° (ENE) 21:38:49 145.870
AO-85 22 Oct 21:33:31 21:37:49 57° 39° (NE) 21:42:28 145.980
FO-29 22 Oct 21:33:47 21:38:44 20° 85° (E) 21:43:58 435.910
ZACube-1 22 Oct 21:35:19 21:39:54 73° 257° (WSW) 21:44:30 437.345
KKS-1 22 Oct 21:35:58 21:38:13 14° 309° (NW) 21:40:26 437.445
EO-88 22 Oct 21:42:54 21:44:56 14° 58° (ENE) 21:46:57 145.990 - 145.960
CUTE 1.7 + AOD 2 22 Oct 21:44:03 21:46:33 15° 273° (W) 21:49:03 437.475
SEEDS 22 Oct 21:45:38 21:48:48 21° 269° (W) 21:51:59 437.485
XW-2A 22 Oct 21:47:14 21:49:58 22° 266° (W) 21:52:43 145.665 - 145.685
Max Valier Satellite 22 Oct 21:56:59 22:00:01 24° 63° (ENE) 22:03:05 145.860
STARS 22 Oct 22:01:39 22:04:18 16° 307° (NW) 22:06:59 437.465
AAUSAT CUBESAT 2 22 Oct 22:01:43 22:05:15 27° 266° (W) 22:08:48 437.432
O/OREOS (USA 219) 22 Oct 22:02:43 22:07:11 54° 113° (ESE) 22:11:42 437.305
UWE-3 22 Oct 22:04:07 22:08:05 27° 268° (W) 22:12:05 435.000/436.395/437.385
Oscar 11 22 Oct 22:08:17 22:12:32 54° 259° (W) 22:16:49 .
BEESAT 2 22 Oct 22:08:21 22:12:24 65° 230° (SW) 22:16:23 435.950
BEESAT 3 22 Oct 22:20:10 22:23:12 21° 243° (WSW) 22:26:10 437.485
STRAND 1 22 Oct 22:28:27 22:33:34 61° 292° (WNW) 22:38:38 437.568
AO-73 22 Oct 22:49:37 22:52:59 20° 271° (W) 22:56:21 145.935
ESTCUBE 1 22 Oct 22:57:28 23:00:10 16° 54° (NE) 23:02:52 437.505/2401.250
YUBILEINY 22 Oct 22:58:33 23:06:48 47° 273° (W) 23:15:04 435.215
UNISAT 6 22 Oct 23:02:06 23:05:27 19° 88° (E) 23:08:44 437.425
DELFI C3 22 Oct 23:06:30 23:10:19 52° 259° (W) 23:14:11 145.870
AO-85 22 Oct 23:14:07 23:18:06 32° 238° (WSW) 23:22:20 145.980
EO-88 22 Oct 23:14:27 23:18:06 74° 257° (WSW) 23:21:47 145.990 - 145.960
ZACube-1 22 Oct 23:15:23 23:17:00 12° 277° (W) 23:18:36 437.345
TIGRISAT 22 Oct 23:15:58 23:19:42 23° 91° (E) 23:23:21 435.000
FO-29 22 Oct 23:17:52 23:24:41 78° 105° (ESE) 23:32:15 435.910
PRISM 22 Oct 23:23:24 23:25:12 12° 87° (E) 23:26:58 437.425
Max Valier Satellite 22 Oct 23:30:11 23:33:42 38° 262° (W) 23:37:14 145.860
RS-15 22 Oct 23:33:33 23:37:26 12° 87° (E) 23:41:17 29.354- 29.394
O/OREOS (USA 219) 22 Oct 23:42:50 23:46:53 30° 315° (NW) 23:50:58 437.305
BEESAT 2 22 Oct 23:48:22 23:49:20 11° 250° (WSW) 23:50:18 435.950
LO-87 22 Oct 23:56:04 23:59:34 50° 70° (ENE) 00:03:06 145.935 - 145.965
STRAND 1 23 Oct 00:09:05 00:11:48 15° 312° (NW) 00:14:31 437.568
VELOX 1 23 Oct 00:12:26 00:15:11 17° 54° (NE) 00:17:58 145.980
ESTCUBE 1 23 Oct 00:31:50 00:36:20 85° 71° (ENE) 00:40:50 437.505/2401.250
UNISAT 6 23 Oct 00:38:01 00:42:39 68° 289° (WNW) 00:47:10 437.425
SPROUT 23 Oct 00:42:51 00:46:44 34° 64° (ENE) 00:50:39 437.525
AIST 2D 23 Oct 00:47:04 00:49:52 22° 93° (E) 00:52:38 435.315
TIGRISAT 23 Oct 00:52:10 00:56:44 56° 291° (WNW) 01:01:10 435.000
PRISM 23 Oct 00:56:56 01:01:05 89° 86° (E) 01:05:14 437.425
YUBILEINY 23 Oct 00:58:37 01:01:14 12° 297° (WNW) 01:03:51 435.215
FO-29 23 Oct 01:03:34 01:09:18 31° 304° (NW) 01:15:32 435.910
EO-79 23 Oct 01:04:17 01:07:00 16° 88° (E) 01:09:40 145.935-145.965
POLYITAN 1 23 Oct 01:09:35 01:12:32 18° 89° (E) 01:15:28 437.675
DX 1 23 Oct 01:10:33 01:13:21 17° 55° (NE) 01:16:10 434.975-435.025
O/OREOS (USA 219) 23 Oct 01:26:47 01:27:52 11° 339° (NNW) 01:28:56 437.305
UKube-1 23 Oct 01:29:12 01:31:59 17° 55° (NE) 01:34:47 .
QB50P2 23 Oct 01:29:33 01:33:19 29° 94° (E) 01:37:01 145.880/145.840
NANOSAT C BR1 23 Oct 01:30:15 01:33:46 24° 93° (E) 01:37:15 145.865
LO-87 23 Oct 01:30:45 01:33:15 17° 269° (W) 01:35:47 145.935 - 145.965
RS-15 23 Oct 01:35:03 01:46:26 47° 113° (ESE) 01:57:43 29.354- 29.394
50 SAT 23 Oct 01:35:24 01:37:57 21° 63° (ENE) 01:40:31 437.505
DUCHIFAT 1 23 Oct 01:39:27 01:43:04 26° 93° (E) 01:46:38 145.980
VELOX 1 23 Oct 01:46:40 01:51:03 89° 248° (WSW) 01:55:29 145.980
ESTCUBE 1 23 Oct 02:11:11 02:13:46 15° 273° (W) 02:16:21 437.505/2401.250
BEESAT 23 Oct 02:15:36 02:16:53 11° 45° (NE) 02:18:09 436.000
UNISAT 6 23 Oct 02:16:13 02:18:32 14° 309° (NW) 02:20:49 437.425
SPROUT 23 Oct 02:18:42 02:22:38 34° 264° (W) 02:26:36 437.525
AIST 2D 23 Oct 02:19:57 02:23:09 35° 292° (WNW) 02:26:20 435.315
TIGRISAT 23 Oct 02:30:50 02:32:27 12° 312° (NW) 02:34:03 435.000
PRISM 23 Oct 02:33:25 02:35:48 15° 305° (NW) 02:38:12 437.425
